Tracking 19192 objects as of 22-Jun-2018
HD Live streaming from Space Station
objects crossing your sky now

FENGYUN 1C DEB

Track FENGYUN 1C DEB now!
10-day predictions


NORAD ID: 32331
Int'l Code: 1999-025CXY
Perigee: 806.9 km
Apogee: 870.4 km
Inclination: 99.2 °
Period: 101.5 minutes
Semi major axis: 7209 km
RCS: 0.0092 m2 (small)
Launch date: May 10, 1999
Source: People's Republic of China (PRC)
Launch site: Taiyaun Space Center, China (TSC)

Note: This is SATELLITE DEBRIS
aabbcc
Your satellite tracking list
Your tracking list is empty




NASA's NSSDC Master Catalog

Two Line Element Set (TLE):
1 32331U 99025CXY 18172.58293793 +.00000922 +00000-0 +46728-3 0  9995
2 32331 099.2042 312.9203 0044064 070.7453 289.8481 14.18185627216231
Source of the keplerian elements: AFSPC